Погода в Оренсе

Испания     42°20′41″N   7°51′55″W
темп.,
°C
ветер,
м/с
пор.,
м/с
влажн.,
%
обл.,
%
осадки,
мм/ч
давл.,
гПа
погр.,
м
13 апреля, вт
вт1323:00+8юв2456100 0.0 102379
02:00+9юв2453100 0.0 102389
05:00+7вюв1162100 0.2 102214
08:00+7вюв1290100 2.0 102273
11:00+9юв3887100 0.2 1021468
14:00+9вюв1591100 1.1 1022250
17:00+9ююв2691100 0.4 1020346
20:00+10юв1392100 0.7 1020107
14 апреля, ср
ср1423:00+9ююв1294100 0.1 102150
02:00+9юв1294100 0.1 102140
05:00+8юв229586 0.0 101930
08:00+8юв119369 0.0 101930
11:00+13юв237620 0.0 1018474
14:00+18ююв2355100 0.0 10161490
17:00+16всв126799 0.0 1015200
20:00+17ссв116992 0.0 101412
15 апреля, чт
чт1523:00+10всв218893 0.0 101616
02:00+8юв119181 0.0 101711
05:00+7в11914 0.0 101712
08:00+6вюв11905 0.0 101713
11:00+14юв12605 0.0 1017539
14:00+18ююв12410 0.0 10161192
17:00+20с23433 0.0 10141900
20:00+16ссв35545 0.0 1015204
16 апреля, пт
пт1623:00+8св11788 0.0 101813
02:00+6вюв22815 0.0 101818
05:00+5в12741 0.0 101824
08:00+4в1174100 0.0 101919
11:00+11всв12485 0.0 1019541
14:00+16сз124197 0.0 10181262
17:00+17сз113840 0.0 10161614
20:00+13с36507 0.0 1017342
17 апреля, сб
сб1723:00+6св11726 0.0 102113
02:00+5юв386485 0.0 1022226
05:00+4юв5105386 0.0 1023352
08:00+1юв38615 0.0 1024238
11:00+9ююв12485 0.0 1023508
14:00+16сз12395 0.0 10211007
17:00+17ссз333542 0.0 10201324
20:00+15ссз2256100 0.0 102050